Flag for Italy Weather past 2 weeks in Verona, Italy

Now
88 °F

Passing clouds.


Feels Like: 88 °F
Forecast: 69 / 89 °F
Wind: 2 mph from North

Location: Verona / Villafranca

Current Time: Jul 28, 2015 at 8:08:35 PM

Latest Report: Jul 28, 2015 at 7:20 PM


Visibility: N/A

Pressure: 29.68 "Hg

Humidity: 40%

Dew point: 61 °F

Location of VeronaLocation

Historic Weather in Verona — Graph

°F

Verona temperature yesterday

Maximum temperature yesterday: 90 °F (at 4:50 PM)
Minimum temperature yesterday: 66 °F (at 4:50 AM)
Average temperature yesterday: 78 °F

Past Weeks' High & Low Weather Summary

 TemperatureHumidityPressure
High99 °F (Jul 21, 4:50 PM)100% (Jul 27, 4:50 AM)30.07 "Hg (Jul 27, 4:50 AM)
Low66 °F (Jul 27, 4:50 AM)27% (Jul 19, 5:20 PM)29.62 "Hg (Jul 27, 7:20 PM)
Average84 °F57%29.88 "Hg
* Reported Jul 13 6:20 PM — Jul 28 6:50 PM, Verona, Weather by CustomWeather, © 2015

Note: Actual official high and low records may vary slightly from our data, if they occured in-between our weather recording intervals... More about our weather records

Advertising

Verona weather history for previous 24 hours

 ConditionsComfort  
Time TempWeatherWind HumidityBarometerVisibility
6:50 PM
Tue, Jul 28
88 °FPassing clouds.3 mph38%29.68 "HgN/A
5:50 PM88 °FPassing clouds.2 mph40%29.68 "HgN/A
5:20 PM88 °FPassing clouds.6 mph43%29.68 "HgN/A
4:50 PM88 °FPassing clouds.6 mph38%29.71 "HgN/A
4:20 PM88 °FPassing clouds.6 mph43%29.71 "HgN/A
3:50 PM86 °FScattered clouds.6 mph49%29.71 "HgN/A
3:20 PM86 °FScattered clouds.5 mph46%29.71 "HgN/A
2:50 PM86 °FPassing clouds.5 mph52%29.74 "HgN/A
2:20 PM86 °FPassing clouds.7 mph52%29.74 "HgN/A
1:50 PM84 °FPassing clouds.5 mph48%29.74 "HgN/A
1:20 PM84 °FPassing clouds.5 mph55%29.74 "HgN/A
12:50 PM84 °FScattered clouds.6 mph55%29.74 "HgN/A
12:20 PM82 °FScattered clouds.8 mph58%29.74 "HgN/A
11:50 AM82 °FScattered clouds.9 mph58%29.74 "HgN/A
11:20 AM81 °FPartly sunny.8 mph58%29.77 "HgN/A
10:50 AM79 °FPartly sunny.7 mph61%29.74 "HgN/A
10:20 AM79 °FPartly sunny.7 mph58%29.74 "HgN/A
9:50 AM79 °FPartly sunny.8 mph58%29.74 "HgN/A
9:20 AM77 °FPartly sunny.8 mph61%29.74 "HgN/A
8:50 AM77 °FPartly sunny.8 mph61%29.74 "HgN/A
8:20 AM75 °FPartly sunny.9 mph65%29.74 "HgN/A
7:50 AM75 °FPartly sunny.8 mph65%29.74 "HgN/A
7:20 AM73 °FPassing clouds.7 mph69%29.74 "HgN/A
6:50 AM72 °FPassing clouds.7 mph73%29.74 "HgN/A
6:20 AM72 °FPassing clouds.6 mph73%29.74 "HgN/A
5:50 AM73 °FClear.9 mph69%29.71 "Hg10 mi
5:20 AM73 °FClear.9 mph69%29.71 "Hg10 mi
4:50 AM73 °FClear.7 mph69%29.71 "Hg10 mi
4:20 AM73 °FPassing clouds.7 mph74%29.71 "HgN/A
3:50 AM73 °FPassing clouds.7 mph78%29.71 "HgN/A
3:20 AM73 °FPassing clouds.5 mph78%29.71 "HgN/A
2:50 AM72 °FClear.5 mph88%29.71 "Hg10 mi
2:20 AM73 °FClear.6 mph83%29.71 "Hg10 mi
1:50 AM72 °FClear.6 mph88%29.71 "Hg10 mi
1:20 AM73 °FClear.5 mph89%29.71 "Hg10 mi
12:50 AM75 °FClear.6 mph83%29.71 "Hg10 mi
12:20 AM75 °FClear.6 mph83%29.71 "Hg10 mi
11:50 PM
Mon, Jul 27
75 °FClear.7 mph83%29.71 "Hg10 mi
11:20 PM77 °FClear.7 mph79%29.71 "Hg10 mi
10:50 PM77 °FPassing clouds.8 mph79%29.68 "HgN/A
10:20 PM79 °FPassing clouds.8 mph70%29.68 "HgN/A
9:50 PM79 °FPassing clouds.6 mph61%29.68 "HgN/A
9:20 PM79 °FPassing clouds.6 mph70%29.65 "HgN/A
8:50 PM82 °FPassing clouds.2 mph62%29.65 "HgN/A
8:20 PM86 °FPassing clouds.3 mph52%29.65 "HgN/A
Weather by CustomWeather, © 2015

See weather overviewHow to use our weather pages